Powrót do katalogu

KAIYUN-1

AktywnyNaukaSSO
NORAD 65488·PAYLOAD·🇨🇳 China
Ta nazwa satelity nie została jeszcze potwierdzona przez oficjalne źródła.

Wystrzelony Sep 5, 2025 z Jiuquan Satellite Launch Center

Loading…

Następne Przeloty (najbliższe 24 godziny)

TLE

ŚwieżeSource: Space-Track

Epoka: Sep 14, 2026, 11:32 UTC

1 65488U 25197A   26257.48095958  .00001949  00000-0  12034-3 0  9991
2 65488  97.4168  76.8520 0015020  82.0422 278.2512 15.10953773 56494

Śledź KAIYUN-1 w czasie rzeczywistym z AllMySat

Download on the App Store